When you browse on this site, cookies collect data to enhance your experience and personalize the content and advertising you see.
Visit our Privacy Policy to learn more. By continuing to use the site, you agree to this use of cookies and data.
  • In Österreich
  • Länderverzeichnis
  • Für 7 Tage
  • Wassertemperatur
  • Satellitenkarten
  • Wetterkarte
  • News
  • Widgets
  • user-avatar
    Anmelden

    Stündliche Wetter Innsbruck

    Heute, 22 Mai, Mittwoch

    Zeit Temperatur Niederschläge Wind Luftdruck Luftfeuchtigkeit
    00:00 +1°C° 0.2 mm 1 m/S 593 mmHg 95%
    01:00 +1°C° 0 mm 1 m/S 593 mmHg 95%
    02:00 -1°C° 0.1 mm 2 m/S 593 mmHg 95%
    03:00 -2°C° 0.1 mm 2 m/S 593 mmHg 95%
    04:00 -2°C° 0.1 mm 2 m/S 593 mmHg 95%
    05:00 -1°C° 0 mm 2 m/S 593 mmHg 94%
    06:00 +2°C° 0 mm 1 m/S 594 mmHg 93%
    07:00 +3°C° 0 mm 1 m/S 594 mmHg 92%
    08:00 +4°C° 0.1 mm 1 m/S 595 mmHg 89%
    09:00 +4°C° 0.1 mm 2 m/S 595 mmHg 86%
    10:00 +5°C° 0.1 mm 2 m/S 596 mmHg 83%
    11:00 +6°C° 0.2 mm 2 m/S 596 mmHg 80%
    12:00 +6°C° 0.2 mm 2 m/S 596 mmHg 78%
    13:00 +7°C° 0.2 mm 2 m/S 597 mmHg 75%
    14:00 +7°C° 0.3 mm 2 m/S 597 mmHg 77%
    15:00 +7°C° 0.3 mm 2 m/S 596 mmHg 78%
    16:00 +5°C° 0.3 mm 3 m/S 596 mmHg 80%
    17:00 +5°C° 0.3 mm 2 m/S 596 mmHg 84%
    18:00 +4°C° 0.3 mm 2 m/S 596 mmHg 89%
    19:00 +3°C° 0.3 mm 2 m/S 595 mmHg 93%
    20:00 +4°C° 0.1 mm 1 m/S 596 mmHg 95%
    21:00 +3°C° 0.1 mm 1 m/S 596 mmHg 96%
    22:00 +2°C° 0.1 mm 1 m/S 596 mmHg 97%
    23:00 +2°C° 0 mm 1 m/S 596 mmHg 97%

    Morgen, 23 Mai, Donnerstag

    Zeit Temperatur Niederschläge Wind Luftdruck Luftfeuchtigkeit
    00:00 +1°C° 0 mm 1 m/S 596 mmHg 96%
    01:00 +1°C° 0 mm 1 m/S 595 mmHg 95%
    02:00 0°C° 0 mm 1 m/S 595 mmHg 95%
    03:00 0°C° 0 mm 1 m/S 595 mmHg 94%
    04:00 -1°C° 0 mm 1 m/S 595 mmHg 94%
    05:00 +1°C° 0 mm 1 m/S 595 mmHg 91%
    06:00 +3°C° 0 mm 1 m/S 596 mmHg 88%
    07:00 +4°C° 0 mm 1 m/S 597 mmHg 84%
    08:00 +5°C° 0 mm 1 m/S 597 mmHg 79%
    09:00 +7°C° 0 mm 1 m/S 598 mmHg 73%
    10:00 +8°C° 0 mm 1 m/S 598 mmHg 68%
    11:00 +9°C° 0 mm 1 m/S 598 mmHg 64%
    12:00 +9°C° 0 mm 2 m/S 598 mmHg 60%
    13:00 +10°C° 0 mm 2 m/S 599 mmHg 56%
    14:00 +10°C° 0 mm 2 m/S 598 mmHg 56%
    15:00 +10°C° 0 mm 2 m/S 598 mmHg 55%
    16:00 +10°C° 0 mm 2 m/S 598 mmHg 55%
    17:00 +8°C° 0 mm 2 m/S 597 mmHg 62%
    18:00 +7°C° 0 mm 2 m/S 596 mmHg 68%
    19:00 +5°C° 0 mm 2 m/S 596 mmHg 75%
    20:00 +4°C° 0 mm 1 m/S 595 mmHg 80%
    21:00 +3°C° 0 mm 1 m/S 595 mmHg 86%
    22:00 +1°C° 0 mm 1 m/S 594 mmHg 91%
    23:00 +1°C° 0 mm 1 m/S 594 mmHg 90%

    übermorgen, 24 Mai, Freitag

    Zeit Temperatur Niederschläge Wind Luftdruck Luftfeuchtigkeit
    00:00 +1°C° 0 mm 1 m/S 594 mmHg 90%
    01:00 +1°C° 0 mm 1 m/S 594 mmHg 89%
    02:00 0°C° 0 mm 1 m/S 594 mmHg 88%
    03:00 0°C° 0 mm 1 m/S 594 mmHg 86%
    04:00 0°C° 0 mm 1 m/S 593 mmHg 85%
    05:00 +3°C° 0 mm 1 m/S 594 mmHg 79%
    06:00 +4°C° 0 mm 0 m/S 595 mmHg 73%
    07:00 +6°C° 0 mm 0 m/S 596 mmHg 66%
    08:00 +7°C° 0 mm 0 m/S 596 mmHg 61%
    09:00 +10°C° 0 mm 1 m/S 597 mmHg 56%
    10:00 +11°C° 0 mm 1 m/S 597 mmHg 51%
    11:00 +12°C° 0 mm 1 m/S 597 mmHg 51%
    12:00 +12°C° 0 mm 2 m/S 597 mmHg 51%
    13:00 +13°C° 0 mm 2 m/S 597 mmHg 50%
    14:00 +13°C° 0 mm 2 m/S 597 mmHg 52%
    15:00 +12°C° 0 mm 2 m/S 596 mmHg 55%
    16:00 +12°C° 0 mm 2 m/S 596 mmHg 57%
    17:00 +10°C° 0.1 mm 2 m/S 595 mmHg 64%
    18:00 +8°C° 0.1 mm 2 m/S 595 mmHg 72%
    19:00 +8°C° 0.1 mm 1 m/S 594 mmHg 79%
    20:00 +7°C° 0.2 mm 1 m/S 594 mmHg 84%
    21:00 +5°C° 0.2 mm 1 m/S 594 mmHg 89%
    22:00 +3°C° 0.2 mm 0 m/S 593 mmHg 94%
    23:00 +3°C° 0.1 mm 0 m/S 593 mmHg 94%

    25 Mai, Samstag

    Zeit Temperatur Niederschläge Wind Luftdruck Luftfeuchtigkeit
    00:00 +3°C° 0.1 mm 1 m/S 593 mmHg 93%
    01:00 +3°C° 0.1 mm 1 m/S 593 mmHg 93%
    02:00 +3°C° 0 mm 1 m/S 593 mmHg 92%
    03:00 +3°C° 0 mm 1 m/S 593 mmHg 91%
    04:00 +3°C° 0 mm 1 m/S 593 mmHg 90%
    05:00 +5°C° 0.1 mm 1 m/S 594 mmHg 85%
    06:00 +6°C° 0.1 mm 1 m/S 594 mmHg 80%
    07:00 +7°C° 0.1 mm 0 m/S 595 mmHg 75%
    08:00 +9°C° 0.1 mm 1 m/S 596 mmHg 70%
    09:00 +11°C° 0.1 mm 1 m/S 596 mmHg 66%
    10:00 +12°C° 0.1 mm 1 m/S 597 mmHg 61%
    11:00 +11°C° 0.7 mm 1 m/S 597 mmHg 66%
    12:00 +11°C° 0.7 mm 1 m/S 596 mmHg 71%
    13:00 +10°C° 0.7 mm 1 m/S 596 mmHg 75%
    14:00 +10°C° 1.1 mm 1 m/S 596 mmHg 79%
    15:00 +10°C° 1.1 mm 1 m/S 595 mmHg 82%
    16:00 +9°C° 1.1 mm 1 m/S 595 mmHg 85%
    17:00 +8°C° 2.8 mm 1 m/S 595 mmHg 89%
    18:00 +7°C° 2.8 mm 1 m/S 595 mmHg 92%
    19:00 +6°C° 2.8 mm 1 m/S 594 mmHg 96%
    20:00 +6°C° 3.5 mm 1 m/S 595 mmHg 96%
    21:00 +5°C° 3.5 mm 1 m/S 595 mmHg 97%
    22:00 +5°C° 3.5 mm 1 m/S 595 mmHg 97%
    23:00 +5°C° 1 mm 1 m/S 595 mmHg 96%

    26 Mai, Sonntag

    Zeit Temperatur Niederschläge Wind Luftdruck Luftfeuchtigkeit
    00:00 +4°C° 1 mm 1 m/S 595 mmHg 95%
    01:00 +3°C° 1 mm 0 m/S 594 mmHg 94%
    02:00 +4°C° 0.1 mm 1 m/S 594 mmHg 94%
    03:00 +4°C° 0.1 mm 1 m/S 594 mmHg 93%
    04:00 +3°C° 0.1 mm 1 m/S 594 mmHg 93%
    05:00 +4°C° 0 mm 1 m/S 594 mmHg 90%
    06:00 +6°C° 0 mm 1 m/S 595 mmHg 88%
    07:00 +7°C° 0 mm 1 m/S 596 mmHg 85%
    08:00 +8°C° 0 mm 1 m/S 596 mmHg 79%
    09:00 +10°C° 0 mm 1 m/S 597 mmHg 73%
    10:00 +10°C° 0 mm 2 m/S 597 mmHg 67%
    11:00 +10°C° 0.1 mm 2 m/S 597 mmHg 65%
    12:00 +12°C° 0.1 mm 2 m/S 598 mmHg 64%
    13:00 +12°C° 0.1 mm 2 m/S 598 mmHg 62%
    14:00 +12°C° 0.5 mm 2 m/S 597 mmHg 67%
    15:00 +10°C° 0.5 mm 2 m/S 597 mmHg 71%
    16:00 +10°C° 0.5 mm 3 m/S 596 mmHg 76%
    17:00 +9°C° 0.4 mm 2 m/S 596 mmHg 81%
    18:00 +8°C° 0.4 mm 2 m/S 596 mmHg 86%
    19:00 +7°C° 0.4 mm 2 m/S 595 mmHg 91%
    20:00 +6°C° 0 mm 2 m/S 595 mmHg 93%
    21:00 +6°C° 0 mm 1 m/S 595 mmHg 95%
    22:00 +5°C° 0 mm 1 m/S 595 mmHg 96%
    23:00 +5°C° 0 mm 1 m/S 594 mmHg 96%

    27 Mai, Montag

    Zeit Temperatur Niederschläge Wind Luftdruck Luftfeuchtigkeit
    00:00 +3°C° 0 mm 0 m/S 594 mmHg 96%
    01:00 +3°C° 0 mm 0 m/S 594 mmHg 96%
    02:00 +3°C° 0 mm 0 m/S 593 mmHg 96%
    03:00 +3°C° 0 mm 0 m/S 593 mmHg 95%
    04:00 +2°C° 0 mm 0 m/S 593 mmHg 95%
    05:00 +4°C° 0 mm 0 m/S 593 mmHg 90%
    06:00 +5°C° 0 mm 0 m/S 594 mmHg 85%
    07:00 +6°C° 0 mm 0 m/S 594 mmHg 81%
    08:00 +8°C° 0.2 mm 0 m/S 594 mmHg 76%
    09:00 +10°C° 0.2 mm 1 m/S 595 mmHg 72%
    10:00 +11°C° 0.2 mm 1 m/S 595 mmHg 67%
    11:00 +10°C° 1.1 mm 1 m/S 594 mmHg 73%
    12:00 +9°C° 1.1 mm 2 m/S 594 mmHg 79%
    13:00 +8°C° 1.1 mm 2 m/S 593 mmHg 84%
    14:00 +8°C° 1.7 mm 2 m/S 593 mmHg 87%
    15:00 +7°C° 1.7 mm 2 m/S 592 mmHg 89%
    16:00 +7°C° 1.7 mm 2 m/S 592 mmHg 91%
    17:00 +6°C° 0.6 mm 2 m/S 592 mmHg 92%
    18:00 +7°C° 0.6 mm 1 m/S 591 mmHg 93%
    19:00 +7°C° 0.6 mm 1 m/S 591 mmHg 93%
    20:00 +6°C° 0 mm 1 m/S 591 mmHg 94%
    21:00 +5°C° 0 mm 1 m/S 591 mmHg 94%
    22:00 +4°C° 0 mm 1 m/S 590 mmHg 95%
    23:00 +4°C° 0 mm 1 m/S 590 mmHg 94%
    Mehr zeigen